When you browse on this site, cookies collect data to enhance your experience and personalize the content and advertising you see.
Visit our Privacy Policy to learn more. By continuing to use the site, you agree to this use of cookies and data.
  • En España
  • Lista de países
  • Para 7 días
  • Temperatura del agua
  • Mapa Satelital
  • El tiempo en el mapa
  • Informadores
  • user-avatar
    Iniciar sesión

    Tiempo cada hora Zabid

    Hoy, 21 Junio, Viernes

    Tiempo Temperatura Precipitaciones Viento Presión Humedad
    00:00 +35°C° 0 mm 3 mps 747 mmHg 59%
    01:00 +35°C° 0 mm 3 mps 746 mmHg 60%
    02:00 +35°C° 0 mm 3 mps 745 mmHg 61%
    03:00 +35°C° 0 mm 3 mps 745 mmHg 62%
    04:00 +34°C° 0 mm 3 mps 745 mmHg 65%
    05:00 +34°C° 0 mm 3 mps 746 mmHg 68%
    06:00 +33°C° 0 mm 3 mps 746 mmHg 72%
    07:00 +34°C° 0 mm 3 mps 746 mmHg 66%
    08:00 +36°C° 0 mm 3 mps 747 mmHg 60%
    09:00 +37°C° 0 mm 3 mps 747 mmHg 54%
    10:00 +38°C° 0 mm 3 mps 747 mmHg 50%
    11:00 +39°C° 0 mm 3 mps 747 mmHg 46%
    12:00 +40°C° 0 mm 3 mps 746 mmHg 43%
    13:00 +41°C° 0 mm 4 mps 746 mmHg 40%
    14:00 +41°C° 0 mm 4 mps 745 mmHg 37%
    15:00 +42°C° 0 mm 4 mps 745 mmHg 35%
    16:00 +41°C° 0 mm 5 mps 745 mmHg 35%
    17:00 +41°C° 0 mm 5 mps 745 mmHg 35%
    18:00 +41°C° 0 mm 6 mps 746 mmHg 35%
    19:00 +41°C° 0 mm 5 mps 746 mmHg 34%
    20:00 +40°C° 0 mm 3 mps 746 mmHg 32%
    21:00 +40°C° 0 mm 2 mps 746 mmHg 31%
    22:00 +39°C° 0 mm 2 mps 746 mmHg 34%
    23:00 +38°C° 0 mm 2 mps 746 mmHg 37%

    Mañana, 22 Junio, Sábado

    Tiempo Temperatura Precipitaciones Viento Presión Humedad
    00:00 +37°C° 0 mm 2 mps 746 mmHg 40%
    01:00 +36°C° 0 mm 2 mps 745 mmHg 41%
    02:00 +36°C° 0 mm 2 mps 745 mmHg 41%
    03:00 +36°C° 0 mm 2 mps 744 mmHg 42%
    04:00 +35°C° 0 mm 2 mps 744 mmHg 49%
    05:00 +34°C° 0 mm 2 mps 745 mmHg 55%
    06:00 +32°C° 0 mm 2 mps 745 mmHg 62%
    07:00 +35°C° 0 mm 2 mps 746 mmHg 57%
    08:00 +35°C° 0 mm 1 mps 746 mmHg 52%
    09:00 +36°C° 0 mm 1 mps 746 mmHg 46%
    10:00 +39°C° 0 mm 1 mps 746 mmHg 42%
    11:00 +40°C° 0 mm 2 mps 746 mmHg 37%
    12:00 +43°C° 0 mm 3 mps 746 mmHg 32%
    13:00 +43°C° 0 mm 4 mps 745 mmHg 31%
    14:00 +43°C° 0 mm 4 mps 744 mmHg 31%
    15:00 +43°C° 0 mm 5 mps 744 mmHg 31%
    16:00 +42°C° 0 mm 4 mps 744 mmHg 31%
    17:00 +42°C° 0 mm 4 mps 744 mmHg 31%
    18:00 +42°C° 0 mm 3 mps 744 mmHg 30%
    19:00 +39°C° 0 mm 3 mps 745 mmHg 36%
    20:00 +38°C° 0 mm 4 mps 745 mmHg 42%
    21:00 +37°C° 0 mm 4 mps 746 mmHg 47%
    22:00 +37°C° 0 mm 3 mps 746 mmHg 47%
    23:00 +37°C° 0 mm 2 mps 745 mmHg 46%

    Pasado mañana, 23 Junio, Domingo

    Tiempo Temperatura Precipitaciones Viento Presión Humedad
    00:00 +37°C° 0 mm 2 mps 745 mmHg 46%
    01:00 +36°C° 0 mm 2 mps 745 mmHg 51%
    02:00 +35°C° 0 mm 3 mps 745 mmHg 56%
    03:00 +35°C° 0 mm 4 mps 744 mmHg 61%
    04:00 +34°C° 0 mm 3 mps 744 mmHg 61%
    05:00 +34°C° 0 mm 3 mps 745 mmHg 61%
    06:00 +34°C° 0 mm 3 mps 745 mmHg 61%
    07:00 +35°C° 0 mm 3 mps 745 mmHg 55%
    08:00 +36°C° 0 mm 3 mps 746 mmHg 50%
    09:00 +38°C° 0 mm 3 mps 746 mmHg 44%
    10:00 +39°C° 0 mm 3 mps 746 mmHg 41%
    11:00 +40°C° 0 mm 3 mps 746 mmHg 39%
    12:00 +42°C° 0 mm 4 mps 745 mmHg 36%
    13:00 +42°C° 0 mm 4 mps 745 mmHg 35%
    14:00 +42°C° 0 mm 5 mps 744 mmHg 34%
    15:00 +42°C° 0 mm 6 mps 744 mmHg 33%
    16:00 +41°C° 0 mm 5 mps 744 mmHg 34%
    17:00 +41°C° 0 mm 4 mps 744 mmHg 34%
    18:00 +39°C° 0 mm 3 mps 744 mmHg 35%
    19:00 +38°C° 0 mm 3 mps 745 mmHg 39%
    20:00 +37°C° 0 mm 3 mps 745 mmHg 43%
    21:00 +36°C° 0 mm 3 mps 746 mmHg 48%
    22:00 +36°C° 0 mm 3 mps 745 mmHg 50%
    23:00 +36°C° 0 mm 3 mps 745 mmHg 51%

    24 Junio, Lunes

    Tiempo Temperatura Precipitaciones Viento Presión Humedad
    00:00 +35°C° 0 mm 3 mps 745 mmHg 53%
    01:00 +35°C° 0 mm 3 mps 745 mmHg 57%
    02:00 +34°C° 0 mm 3 mps 744 mmHg 62%
    03:00 +33°C° 0 mm 3 mps 744 mmHg 66%
    04:00 +32°C° 0 mm 2 mps 745 mmHg 69%
    05:00 +32°C° 0 mm 2 mps 745 mmHg 71%
    06:00 +31°C° 0 mm 2 mps 745 mmHg 74%
    07:00 +32°C° 0 mm 2 mps 746 mmHg 69%
    08:00 +35°C° 0 mm 2 mps 746 mmHg 63%
    09:00 +36°C° 0 mm 2 mps 746 mmHg 57%
    10:00 +37°C° 0 mm 3 mps 746 mmHg 51%
    11:00 +40°C° 0 mm 4 mps 746 mmHg 44%
    12:00 +41°C° 0 mm 4 mps 745 mmHg 38%
    13:00 +41°C° 0 mm 4 mps 745 mmHg 36%
    14:00 +41°C° 0 mm 5 mps 744 mmHg 35%
    15:00 +41°C° 0 mm 5 mps 744 mmHg 33%
    16:00 +41°C° 0 mm 4 mps 744 mmHg 34%
    17:00 +40°C° 0 mm 4 mps 744 mmHg 36%
    18:00 +38°C° 0 mm 4 mps 744 mmHg 37%
    19:00 +38°C° 0 mm 3 mps 745 mmHg 40%
    20:00 +37°C° 0 mm 3 mps 746 mmHg 42%
    21:00 +36°C° 0 mm 2 mps 746 mmHg 45%
    22:00 +36°C° 0 mm 2 mps 746 mmHg 46%
    23:00 +36°C° 0 mm 2 mps 746 mmHg 47%

    25 Junio, Martes

    Tiempo Temperatura Precipitaciones Viento Presión Humedad
    00:00 +35°C° 0 mm 1 mps 745 mmHg 48%
    01:00 +35°C° 0 mm 2 mps 745 mmHg 54%
    02:00 +34°C° 0 mm 2 mps 745 mmHg 59%
    03:00 +34°C° 0 mm 3 mps 745 mmHg 65%
    04:00 +33°C° 0 mm 3 mps 745 mmHg 67%
    05:00 +33°C° 0 mm 4 mps 746 mmHg 68%
    06:00 +33°C° 0 mm 4 mps 746 mmHg 69%
    07:00 +34°C° 0 mm 3 mps 747 mmHg 64%
    08:00 +35°C° 0 mm 3 mps 747 mmHg 59%
    09:00 +36°C° 0 mm 2 mps 747 mmHg 54%
    10:00 +37°C° 0 mm 3 mps 747 mmHg 51%
    11:00 +38°C° 0 mm 3 mps 747 mmHg 47%
    12:00 +40°C° 0 mm 4 mps 746 mmHg 44%
    13:00 +39°C° 0 mm 3 mps 746 mmHg 40%
    14:00 +40°C° 0 mm 3 mps 746 mmHg 37%
    15:00 +42°C° 0 mm 3 mps 745 mmHg 33%
    16:00 +40°C° 0 mm 3 mps 746 mmHg 33%
    17:00 +40°C° 0 mm 2 mps 746 mmHg 32%
    18:00 +40°C° 0 mm 2 mps 746 mmHg 31%
    19:00 +39°C° 0 mm 2 mps 746 mmHg 34%
    20:00 +39°C° 0 mm 2 mps 747 mmHg 37%
    21:00 +38°C° 0 mm 2 mps 747 mmHg 39%
    22:00 +37°C° 0 mm 2 mps 747 mmHg 42%
    23:00 +37°C° 0 mm 2 mps 746 mmHg 44%

    26 Junio, Miércoles

    Tiempo Temperatura Precipitaciones Viento Presión Humedad
    00:00 +35°C° 0 mm 1 mps 746 mmHg 46%
    01:00 +35°C° 0 mm 1 mps 746 mmHg 48%
    02:00 +34°C° 0 mm 1 mps 746 mmHg 49%
    03:00 +32°C° 0 mm 0 mps 746 mmHg 51%
    04:00 +34°C° 0 mm 1 mps 746 mmHg 53%
    05:00 +33°C° 0 mm 1 mps 747 mmHg 56%
    06:00 +33°C° 0 mm 1 mps 747 mmHg 59%
    07:00 +34°C° 0 mm 1 mps 747 mmHg 54%
    08:00 +35°C° 0 mm 1 mps 747 mmHg 50%
    09:00 +35°C° 0 mm 1 mps 747 mmHg 46%
    10:00 +38°C° 0 mm 2 mps 747 mmHg 41%
    11:00 +40°C° 0 mm 2 mps 746 mmHg 36%
    12:00 +42°C° 0 mm 3 mps 746 mmHg 32%
    13:00 +42°C° 0 mm 4 mps 746 mmHg 32%
    14:00 +42°C° 0 mm 5 mps 745 mmHg 33%
    15:00 +42°C° 0 mm 6 mps 745 mmHg 34%
    16:00 +41°C° 0 mm 6 mps 745 mmHg 35%
    17:00 +41°C° 0 mm 5 mps 745 mmHg 35%
    18:00 +40°C° 0 mm 5 mps 745 mmHg 36%
    19:00 +40°C° 0 mm 5 mps 745 mmHg 36%
    20:00 +38°C° 0 mm 4 mps 746 mmHg 36%
    21:00 +38°C° 0 mm 4 mps 746 mmHg 37%
    22:00 +37°C° 0 mm 4 mps 746 mmHg 40%
    23:00 +37°C° 0 mm 4 mps 745 mmHg 44%
    Mostrar más